Change the Weather History Date:

Monday, July 29, 2013

  Actual Average Record
Temperature  
Mean Temperature 71 °F 72 °F  
Max Temperature 85 °F 89 °F 96 °F (2000)
Min Temperature 56 °F 55 °F 46 °F (2002)
Degree Days  
Heating Degree Days 0 0  
Month to date heating degree days 0 0  
Since 1 June heating degree days 12 75  
Since 1 July heating degree days 0 0  
Cooling Degree Days 6 7  
Month to date cooling degree days 286 184  
Year to date cooling degree days 413 247  
Since 1 June cooling degree days 413 242  
Growing Degree Days 20 (Base 50)    
Moisture  
Dew Point 51 °F    
Average Humidity 57    
Maximum Humidity 93    
Minimum Humidity 20    
Precipitation  
Precipitation 0.01 in 0.08 in 0.22 in (1999)
Month to date precipitation 0.94 1.12  
Year to date precipitation 4.27 6.74  
Sea Level Pressure  
Sea Level Pressure 29.98 in    
Wind  
Wind Speed 5 mph (NW)    
Max Wind Speed 21 mph    
Max Gust Speed 26 mph    
Visibility 10 miles    
Events      
T = Trace of Precipitation, MM = Missing Value Source: NWS Daily Summary

Daily Weather History Graph

Daily Weather History Graph

Search for Another Location

Airport or City:

Trip Planner

Search our weather history database for the weather conditions in past years. The results will help you decide how hot, cold, wet, or windy it might be!

Date:

Astronomy

Jul. 29, 2013 Rise Set
Actual Time 6:16 AM MDT 8:24 PM MDT
Civil Twilight 5:47 AM MDT 8:53 PM MDT
Nautical Twilight 5:12 AM MDT 9:29 PM MDT
Astronomical Twilight 4:33 AM MDT 10:07 PM MDT
Moon No Moon Rise 1:50 PM MDT (7/29)
Length of Visible Light 15h 05m
Length of Day
14h 07m
Waning Gibbous, 50% of the Moon is Illuminated
Jul 29
Waning Gibbous
Aug 6
New
Aug 14
First Quarter
Aug 20
Full
Aug 28
Last Quarter

Hourly Weather History & Observations

Time (MDT) Temp. Dew Point Humidity Pressure Visibility Wind Dir Wind Speed Gust Speed Precip Events Conditions
12:53 AM 60.1 °F 57.0 °F 90% 29.92 in 10.0 mi Calm Calm - N/A   Overcast
1:53 AM 60.1 °F 55.9 °F 86% 29.92 in 10.0 mi Calm Calm - N/A   Overcast
2:53 AM 60.1 °F 57.0 °F 90% 29.92 in 10.0 mi Calm Calm - N/A   Overcast
3:53 AM 59.0 °F 57.0 °F 93% 29.92 in 10.0 mi NE 4.6 mph - N/A   Overcast
4:53 AM 59.0 °F 55.0 °F 87% 29.95 in 10.0 mi East 3.5 mph - 0.01 in   Scattered Clouds
5:53 AM 57.0 °F 55.0 °F 93% 29.95 in 10.0 mi WNW 3.5 mph - N/A   Clear
6:53 AM 57.0 °F 54.0 °F 89% 30.01 in 10.0 mi Calm Calm - N/A   Clear
7:53 AM 61.0 °F 55.9 °F 83% 30.02 in 10.0 mi Calm Calm - N/A   Clear
8:53 AM 66.0 °F 55.9 °F 70% 30.02 in 10.0 mi Variable 3.5 mph - N/A   Clear
9:53 AM 69.1 °F 53.1 °F 57% 30.02 in 10.0 mi Calm Calm - N/A   Clear
10:53 AM 73.0 °F 53.1 °F 49% 30.02 in 10.0 mi Calm Calm - N/A   Clear
11:53 AM 73.9 °F 53.1 °F 48% 30.01 in 10.0 mi Calm Calm - N/A   Clear
12:53 PM 80.1 °F 51.1 °F 36% 29.99 in 10.0 mi West 12.7 mph - N/A   Clear
1:53 PM 82.0 °F 48.9 °F 31% 29.97 in 10.0 mi NW 15.0 mph 21.9 mph N/A   Clear
2:53 PM 80.1 °F 46.9 °F 31% 29.97 in 10.0 mi WNW 6.9 mph 18.4 mph N/A   Clear
3:53 PM 84.9 °F 46.0 °F 26% 29.94 in 10.0 mi West 11.5 mph 23.0 mph N/A   Partly Cloudy
4:53 PM 80.1 °F 48.0 °F 32% 29.95 in 10.0 mi NE 8.1 mph - N/A   Mostly Cloudy
5:53 PM 82.0 °F 43.0 °F 25% 29.95 in 10.0 mi WNW 16.1 mph 21.9 mph N/A   Scattered Clouds
6:53 PM 82.0 °F 37.9 °F 21% 29.96 in 10.0 mi West 12.7 mph 21.9 mph N/A   Clear
7:53 PM 79.0 °F 39.0 °F 24% 29.97 in 10.0 mi West 10.4 mph - N/A   Clear
8:53 PM 69.1 °F 44.1 °F 40% 30.00 in 10.0 mi ESE 5.8 mph - N/A   Clear
9:53 PM 64.9 °F 51.1 °F 61% 30.04 in 10.0 mi North 6.9 mph - N/A   Clear
10:53 PM 59.0 °F 52.0 °F 78% 30.06 in 10.0 mi ESE 3.5 mph - N/A   Clear
11:53 PM 59.0 °F 51.1 °F 75% 30.07 in 10.0 mi ENE 3.5 mph - N/A   Clear